Time,TemperatureF,DewpointF,PressureIn,WindDirection,WindDirectionDegrees,WindSpeedMPH,WindSpeedGustMPH,Humidity,HourlyPrecipIn,Conditions,Clouds,dailyrainin,SoftwareType,DateUTC
2013-02-19 00:01:00,36.9,22.7,30.19,North,8,5.0,6.0,56,0.00,,CLR,0.00,VWS V14.01,2013-02-19 06:01:00,
2013-02-19 00:06:00,36.9,22.7,30.19,North,359,0.0,8.0,56,0.00,,CLR,0.00,VWS V14.01,2013-02-19 06:06:00,
2013-02-19 00:12:00,36.9,22.3,30.19,North,354,5.0,8.0,55,0.00,,CLR,0.00,VWS V14.01,2013-02-19 06:12:00,
2013-02-19 00:17:00,36.8,22.2,30.20,North,354,2.0,8.0,55,0.00,,CLR,0.00,VWS V14.01,2013-02-19 06:17:00,
2013-02-19 00:22:00,36.6,22.0,30.20,North,357,5.0,8.0,55,0.00,,CLR,0.00,VWS V14.01,2013-02-19 06:22:00,
2013-02-19 00:27:00,36.5,21.9,30.20,North,359,0.0,8.0,55,0.00,,CLR,0.00,VWS V14.01,2013-02-19 06:27:00,
2013-02-19 00:32:00,36.2,22.0,30.21,North,359,0.0,8.0,56,0.00,,CLR,0.00,VWS V14.01,2013-02-19 06:32:00,
2013-02-19 00:37:00,36.0,21.8,30.21,North,359,0.0,8.0,56,0.00,,CLR,0.00,VWS V14.01,2013-02-19 06:37:00,
2013-02-19 00:42:00,35.8,21.6,30.21,North,359,0.0,8.0,56,0.00,,CLR,0.00,VWS V14.01,2013-02-19 06:42:00,
2013-02-19 00:47:00,35.5,21.4,30.21,North,359,0.0,8.0,56,0.00,,CLR,0.00,VWS V14.01,2013-02-19 06:47:00,
2013-02-19 00:52:00,35.3,21.6,30.21,North,359,0.0,8.0,57,0.00,,CLR,0.00,VWS V14.01,2013-02-19 06:52:00,
2013-02-19 00:58:00,35.0,21.3,30.21,North,359,0.0,8.0,57,0.00,,CLR,0.00,VWS V14.01,2013-02-19 06:58:00,
2013-02-19 01:03:00,34.9,21.2,30.22,North,359,0.0,0.0,57,0.00,,CLR,0.00,VWS V14.01,2013-02-19 07:03:00,
2013-02-19 01:08:00,34.6,21.0,30.22,North,359,0.0,0.0,57,0.00,,CLR,0.00,VWS V14.01,2013-02-19 07:08:00,
2013-02-19 01:13:00,34.6,21.4,30.22,North,359,0.0,1.0,58,0.00,,CLR,0.00,VWS V14.01,2013-02-19 07:13:00,
2013-02-19 01:18:00,34.3,21.1,30.22,North,359,0.0,1.0,58,0.00,,CLR,0.00,VWS V14.01,2013-02-19 07:18:00,
2013-02-19 01:23:00,34.1,20.9,30.22,North,359,0.0,1.0,58,0.00,,CLR,0.00,VWS V14.01,2013-02-19 07:23:00,
2013-02-19 01:28:00,34.0,20.8,30.22,North,359,0.0,1.0,58,0.00,,CLR,0.00,VWS V14.01,2013-02-19 07:28:00,
2013-02-19 01:33:00,34.0,21.2,30.21,North,359,0.0,3.0,59,0.00,,CLR,0.00,VWS V14.01,2013-02-19 07:33:00,
2013-02-19 01:38:00,34.0,21.2,30.21,North,359,2.0,5.0,59,0.00,,CLR,0.00,VWS V14.01,2013-02-19 07:38:00,
2013-02-19 01:43:00,34.1,21.3,30.21,North,357,1.0,5.0,59,0.00,,CLR,0.00,VWS V14.01,2013-02-19 07:43:00,
2013-02-19 01:48:00,34.0,21.2,30.21,North,356,0.0,5.0,59,0.00,,CLR,0.00,VWS V14.01,2013-02-19 07:48:00,
2013-02-19 01:53:00,33.8,21.0,30.21,North,356,0.0,5.0,59,0.00,,CLR,0.00,VWS V14.01,2013-02-19 07:53:00,
2013-02-19 01:58:00,33.7,20.9,30.21,North,356,0.0,5.0,59,0.00,,CLR,0.00,VWS V14.01,2013-02-19 07:58:00,
2013-02-19 02:04:00,33.4,20.6,30.22,North,356,0.0,0.0,59,0.00,,CLR,0.00,VWS V14.01,2013-02-19 08:04:00,
2013-02-19 02:09:00,33.1,20.7,30.22,North,356,0.0,0.0,60,0.00,,CLR,0.00,VWS V14.01,2013-02-19 08:09:00,
2013-02-19 02:14:00,32.9,20.9,30.22,North,356,0.0,0.0,61,0.00,,CLR,0.00,VWS V14.01,2013-02-19 08:14:00,
2013-02-19 02:19:00,32.5,20.6,30.23,North,356,0.0,0.0,61,0.00,,CLR,0.00,VWS V14.01,2013-02-19 08:19:00,
2013-02-19 02:24:00,32.1,20.2,30.23,North,356,0.0,0.0,61,0.00,,CLR,0.00,VWS V14.01,2013-02-19 08:24:00,
2013-02-19 02:29:00,31.8,21.0,30.23,North,356,0.0,0.0,64,0.00,,CLR,0.00,VWS V14.01,2013-02-19 08:29:00,
2013-02-19 02:34:00,31.5,20.7,30.23,North,356,0.0,0.0,64,0.00,,CLR,0.00,VWS V14.01,2013-02-19 08:34:00,
2013-02-19 02:39:00,31.2,20.5,30.23,North,356,0.0,0.0,64,0.00,,CLR,0.00,VWS V14.01,2013-02-19 08:39:00,
2013-02-19 02:44:00,30.9,20.2,30.23,North,356,0.0,0.0,64,0.00,,CLR,0.00,VWS V14.01,2013-02-19 08:44:00,
2013-02-19 02:49:00,30.7,20.7,30.24,North,356,0.0,0.0,66,0.00,,CLR,0.00,VWS V14.01,2013-02-19 08:49:00,
2013-02-19 02:54:00,30.4,20.1,30.24,North,356,0.0,0.0,65,0.00,,CLR,0.00,VWS V14.01,2013-02-19 08:54:00,
2013-02-19 02:59:00,30.3,20.3,30.24,North,356,0.0,0.0,66,0.00,,CLR,0.00,VWS V14.01,2013-02-19 08:59:00,
2013-02-19 03:05:00,30.1,20.5,30.24,North,356,0.0,0.0,67,0.00,,CLR,0.00,VWS V14.01,2013-02-19 09:05:00,
2013-02-19 03:10:00,30.0,20.4,30.24,North,356,0.0,0.0,67,0.00,,CLR,0.00,VWS V14.01,2013-02-19 09:10:00,
2013-02-19 03:15:00,29.8,20.2,30.24,North,356,0.0,0.0,67,0.00,,CLR,0.00,VWS V14.01,2013-02-19 09:15:00,
2013-02-19 03:20:00,29.5,20.3,30.24,North,356,0.0,0.0,68,0.00,,CLR,0.00,VWS V14.01,2013-02-19 09:20:00,
2013-02-19 03:25:00,29.3,19.7,30.24,North,356,0.0,0.0,67,0.00,,CLR,0.00,VWS V14.01,2013-02-19 09:25:00,
2013-02-19 03:30:00,29.1,20.2,30.24,North,356,0.0,0.0,69,0.00,,CLR,0.00,VWS V14.01,2013-02-19 09:30:00,
2013-02-19 03:35:00,29.3,20.7,30.24,North,356,0.0,0.0,70,0.00,,CLR,0.00,VWS V14.01,2013-02-19 09:35:00,
2013-02-19 03:40:00,29.3,21.1,30.24,North,356,0.0,0.0,71,0.00,,CLR,0.00,VWS V14.01,2013-02-19 09:40:00,
2013-02-19 03:45:00,29.3,21.1,30.24,North,356,0.0,0.0,71,0.00,,CLR,0.00,VWS V14.01,2013-02-19 09:45:00,
2013-02-19 03:50:00,29.1,20.9,30.24,North,356,0.0,0.0,71,0.00,,CLR,0.00,VWS V14.01,2013-02-19 09:50:00,
2013-02-19 03:55:00,29.1,20.9,30.24,North,356,0.0,0.0,71,0.00,,CLR,0.00,VWS V14.01,2013-02-19 09:55:00,
2013-02-19 04:00:00,29.1,20.9,30.24,North,356,0.0,0.0,71,0.00,,CLR,0.00,VWS V14.01,2013-02-19 10:00:00,
2013-02-19 04:05:00,29.3,21.4,30.24,North,356,0.0,0.0,72,0.00,,CLR,0.00,VWS V14.01,2013-02-19 10:05:00,
2013-02-19 04:11:00,29.1,21.2,30.24,North,356,0.0,0.0,72,0.00,,CLR,0.00,VWS V14.01,2013-02-19 10:11:00,
2013-02-19 04:16:00,29.4,21.5,30.25,North,356,0.0,0.0,72,0.00,,CLR,0.00,VWS V14.01,2013-02-19 10:16:00,
2013-02-19 04:21:00,29.5,21.6,30.25,North,356,0.0,0.0,72,0.00,,CLR,0.00,VWS V14.01,2013-02-19 10:21:00,
2013-02-19 04:26:00,29.7,21.5,30.25,North,356,0.0,0.0,71,0.00,,CLR,0.00,VWS V14.01,2013-02-19 10:26:00,
2013-02-19 04:31:00,29.8,21.6,30.25,North,356,0.0,0.0,71,0.00,,CLR,0.00,VWS V14.01,2013-02-19 10:31:00,
2013-02-19 04:36:00,29.8,21.2,30.25,North,356,0.0,0.0,70,0.00,,CLR,0.00,VWS V14.01,2013-02-19 10:36:00,
2013-02-19 04:41:00,29.7,21.1,30.25,North,356,0.0,0.0,70,0.00,,CLR,0.00,VWS V14.01,2013-02-19 10:41:00,
2013-02-19 04:46:00,29.5,20.9,30.25,North,356,0.0,0.0,70,0.00,,CLR,0.00,VWS V14.01,2013-02-19 10:46:00,
2013-02-19 04:51:00,29.5,20.6,30.25,North,356,0.0,1.0,69,0.00,,CLR,0.00,VWS V14.01,2013-02-19 10:51:00,
2013-02-19 04:56:00,29.7,20.8,30.25,North,356,2.0,2.0,69,0.00,,CLR,0.00,VWS V14.01,2013-02-19 10:56:00,
2013-02-19 05:01:00,29.7,20.8,30.25,North,356,1.0,2.0,69,0.00,,CLR,0.00,VWS V14.01,2013-02-19 11:01:00,
2013-02-19 05:06:00,29.8,20.9,30.25,North,356,0.0,2.0,69,0.00,,CLR,0.00,VWS V14.01,2013-02-19 11:06:00,
2013-02-19 05:11:00,29.8,20.5,30.25,North,356,0.0,2.0,68,0.00,,CLR,0.00,VWS V14.01,2013-02-19 11:11:00,
2013-02-19 05:16:00,29.8,20.5,30.26,North,356,0.0,2.0,68,0.00,,CLR,0.00,VWS V14.01,2013-02-19 11:16:00,
2013-02-19 05:21:00,29.7,20.1,30.26,North,356,0.0,2.0,67,0.00,,CLR,0.00,VWS V14.01,2013-02-19 11:21:00,
2013-02-19 05:26:00,29.5,19.9,30.26,North,356,0.0,2.0,67,0.00,,CLR,0.00,VWS V14.01,2013-02-19 11:26:00,
2013-02-19 05:31:00,29.3,19.7,30.27,North,356,0.0,2.0,67,0.00,,CLR,0.00,VWS V14.01,2013-02-19 11:31:00,
2013-02-19 05:36:00,29.1,19.9,30.27,North,356,0.0,2.0,68,0.00,,CLR,0.00,VWS V14.01,2013-02-19 11:36:00,
2013-02-19 05:42:00,29.1,19.9,30.27,North,356,0.0,2.0,68,0.00,,CLR,0.00,VWS V14.01,2013-02-19 11:42:00,
2013-02-19 05:47:00,28.8,19.6,30.27,North,356,0.0,2.0,68,0.00,,CLR,0.00,VWS V14.01,2013-02-19 11:47:00,
2013-02-19 05:52:00,28.7,19.8,30.27,North,356,0.0,2.0,69,0.00,,CLR,0.00,VWS V14.01,2013-02-19 11:52:00,
2013-02-19 05:57:00,28.5,19.6,30.27,North,356,0.0,2.0,69,0.00,,CLR,0.00,VWS V14.01,2013-02-19 11:57:00,
2013-02-19 06:02:00,28.5,19.6,30.28,North,356,0.0,0.0,69,0.00,,CLR,0.00,VWS V14.01,2013-02-19 12:02:00,
2013-02-19 06:07:00,28.5,20.0,30.28,North,356,0.0,0.0,70,0.00,,CLR,0.00,VWS V14.01,2013-02-19 12:07:00,
2013-02-19 06:12:00,28.5,19.6,30.28,North,356,0.0,2.0,69,0.00,,CLR,0.00,VWS V14.01,2013-02-19 12:12:00,
2013-02-19 06:17:00,28.5,19.6,30.28,North,356,0.0,2.0,69,0.00,,CLR,0.00,VWS V14.01,2013-02-19 12:17:00,
2013-02-19 06:22:00,28.4,19.5,30.28,North,356,0.0,2.0,69,0.00,,CLR,0.00,VWS V14.01,2013-02-19 12:22:00,
2013-02-19 06:27:00,28.2,19.4,30.28,North,356,0.0,2.0,69,0.00,,CLR,0.00,VWS V14.01,2013-02-19 12:27:00,
2013-02-19 06:32:00,28.1,19.3,30.29,North,356,0.0,2.0,69,0.00,,CLR,0.00,VWS V14.01,2013-02-19 12:32:00,
2013-02-19 06:37:00,27.9,19.1,30.29,North,356,0.0,2.0,69,0.00,,CLR,0.00,VWS V14.01,2013-02-19 12:37:00,
2013-02-19 06:42:00,27.8,19.3,30.29,North,356,0.0,2.0,70,0.00,,CLR,0.00,VWS V14.01,2013-02-19 12:42:00,
2013-02-19 06:47:00,27.5,18.7,30.30,North,356,0.0,2.0,69,0.00,,CLR,0.00,VWS V14.01,2013-02-19 12:47:00,
2013-02-19 06:52:00,27.2,18.4,30.30,North,356,0.0,2.0,69,0.00,,CLR,0.00,VWS V14.01,2013-02-19 12:52:00,
2013-02-19 06:57:00,27.0,18.5,30.30,North,356,0.0,2.0,70,0.00,,CLR,0.00,VWS V14.01,2013-02-19 12:57:00,
2013-02-19 07:02:00,26.7,18.2,30.31,North,356,0.0,0.0,70,0.00,,CLR,0.00,VWS V14.01,2013-02-19 13:02:00,
2013-02-19 07:07:00,26.7,18.6,30.31,North,356,0.0,0.0,71,0.00,,CLR,0.00,VWS V14.01,2013-02-19 13:07:00,
2013-02-19 07:13:00,27.0,18.9,30.31,North,356,0.0,0.0,71,0.00,,CLR,0.00,VWS V14.01,2013-02-19 13:13:00,
2013-02-19 07:18:00,27.0,19.2,30.32,North,356,0.0,0.0,72,0.00,,CLR,0.00,VWS V14.01,2013-02-19 13:18:00,
2013-02-19 07:23:00,27.5,20.0,30.32,North,356,0.0,0.0,73,0.00,,CLR,0.00,VWS V14.01,2013-02-19 13:23:00,
2013-02-19 07:28:00,28.1,20.9,30.32,North,356,0.0,0.0,74,0.00,,CLR,0.00,VWS V14.01,2013-02-19 13:28:00,
2013-02-19 07:33:00,28.7,21.5,30.32,North,356,0.0,0.0,74,0.00,,CLR,0.00,VWS V14.01,2013-02-19 13:33:00,
2013-02-19 07:38:00,29.4,21.8,30.32,North,356,0.0,0.0,73,0.00,,CLR,0.00,VWS V14.01,2013-02-19 13:38:00,
2013-02-19 07:43:00,30.0,22.1,30.32,North,356,0.0,0.0,72,0.00,,CLR,0.00,VWS V14.01,2013-02-19 13:43:00,
2013-02-19 07:48:00,30.6,22.3,30.32,North,356,0.0,0.0,71,0.00,,CLR,0.00,VWS V14.01,2013-02-19 13:48:00,
2013-02-19 07:53:00,31.2,22.6,30.32,North,356,0.0,0.0,70,0.00,,CLR,0.00,VWS V14.01,2013-02-19 13:53:00,
2013-02-19 07:58:00,32.2,23.5,30.32,North,356,0.0,0.0,70,0.00,,CLR,0.00,VWS V14.01,2013-02-19 13:58:00,
2013-02-19 08:03:00,32.7,23.3,30.33,North,356,0.0,0.0,68,0.00,,CLR,0.00,VWS V14.01,2013-02-19 14:03:00,
2013-02-19 08:08:00,32.7,21.9,30.33,North,356,0.0,1.0,64,0.00,,CLR,0.00,VWS V14.01,2013-02-19 14:08:00,
2013-02-19 08:13:00,32.7,22.2,30.33,North,356,0.0,2.0,65,0.00,,CLR,0.00,VWS V14.01,2013-02-19 14:13:00,
2013-02-19 08:18:00,32.8,22.0,30.34,North,356,0.0,2.0,64,0.00,,CLR,0.00,VWS V14.01,2013-02-19 14:18:00,
2013-02-19 08:24:00,33.2,22.4,30.34,North,354,0.0,2.0,64,0.00,,CLR,0.00,VWS V14.01,2013-02-19 14:24:00,
2013-02-19 08:29:00,33.4,21.4,30.34,WNW,298,0.0,5.0,61,0.00,,CLR,0.00,VWS V14.01,2013-02-19 14:29:00,
2013-02-19 08:34:00,34.1,22.8,30.35,WNW,294,0.0,5.0,63,0.00,,CLR,0.00,VWS V14.01,2013-02-19 14:34:00,
2013-02-19 08:39:00,34.3,23.4,30.35,WNW,289,2.0,5.0,64,0.00,,CLR,0.00,VWS V14.01,2013-02-19 14:39:00,
2013-02-19 08:44:00,34.4,22.4,30.35,WNW,292,1.0,5.0,61,0.00,,CLR,0.00,VWS V14.01,2013-02-19 14:44:00,
2013-02-19 08:49:00,34.7,22.6,30.35,WNW,288,0.0,5.0,61,0.00,,CLR,0.00,VWS V14.01,2013-02-19 14:49:00,
2013-02-19 08:54:00,35.2,22.7,30.35,WNW,284,0.0,5.0,60,0.00,,CLR,0.00,VWS V14.01,2013-02-19 14:54:00,
2013-02-19 08:59:00,35.5,22.2,30.35,West,270,0.0,5.0,58,0.00,,CLR,0.00,VWS V14.01,2013-02-19 14:59:00,
2013-02-19 09:04:00,35.9,23.0,30.37,WSW,250,0.0,3.0,59,0.00,,CLR,0.00,VWS V14.01,2013-02-19 15:04:00,
2013-02-19 09:09:00,36.3,23.0,30.37,West,278,0.0,5.0,58,0.00,,CLR,0.00,VWS V14.01,2013-02-19 15:09:00,
2013-02-19 09:14:00,36.5,22.7,30.37,WNW,282,0.0,5.0,57,0.00,,CLR,0.00,VWS V14.01,2013-02-19 15:14:00,
2013-02-19 09:19:00,36.9,22.3,30.38,West,272,0.0,5.0,55,0.00,,CLR,0.00,VWS V14.01,2013-02-19 15:19:00,
2013-02-19 09:24:00,37.3,22.6,30.38,West,261,0.0,5.0,55,0.00,,CLR,0.00,VWS V14.01,2013-02-19 15:24:00,
2013-02-19 09:29:00,37.8,21.8,30.38,WNW,299,3.0,5.0,52,0.00,,CLR,0.00,VWS V14.01,2013-02-19 15:29:00,
2013-02-19 09:34:00,38.0,22.0,30.38,NW,313,0.0,5.0,52,0.00,,CLR,0.00,VWS V14.01,2013-02-19 15:34:00,
2013-02-19 09:39:00,38.6,21.1,30.38,WSW,246,1.0,5.0,49,0.00,,CLR,0.00,VWS V14.01,2013-02-19 15:39:00,
2013-02-19 09:44:00,38.9,20.9,30.38,West,277,5.0,6.0,48,0.00,,CLR,0.00,VWS V14.01,2013-02-19 15:44:00,
2013-02-19 09:49:00,39.2,19.7,30.38,WNW,288,5.0,6.0,45,0.00,,CLR,0.00,VWS V14.01,2013-02-19 15:49:00,
2013-02-19 09:54:00,39.5,19.9,30.38,NW,308,3.0,6.0,45,0.00,,CLR,0.00,VWS V14.01,2013-02-19 15:54:00,
2013-02-19 10:00:00,40.5,20.9,30.39,NNW,330,0.0,6.0,45,0.00,,CLR,0.00,VWS V14.01,2013-02-19 16:00:00,
2013-02-19 10:05:00,40.8,20.6,30.39,WNW,301,2.0,6.0,44,0.00,,CLR,0.00,VWS V14.01,2013-02-19 16:05:00,
2013-02-19 10:10:00,41.1,20.3,30.39,North,357,3.0,10.0,43,0.00,,CLR,0.00,VWS V14.01,2013-02-19 16:10:00,
2013-02-19 10:15:00,41.8,20.4,30.39,NNW,346,0.0,10.0,42,0.00,,CLR,0.00,VWS V14.01,2013-02-19 16:15:00,
2013-02-19 10:20:00,42.3,19.7,30.39,North,356,5.0,10.0,40,0.00,,CLR,0.00,VWS V14.01,2013-02-19 16:20:00,
2013-02-19 10:25:00,42.1,18.3,30.39,NNW,339,2.0,10.0,38,0.00,,CLR,0.00,VWS V14.01,2013-02-19 16:25:00,
2013-02-19 10:30:00,42.1,19.0,30.39,North,0,0.0,10.0,39,0.00,,CLR,0.00,VWS V14.01,2013-02-19 16:30:00,
2013-02-19 10:35:00,42.5,19.3,30.39,NNW,347,6.0,10.0,39,0.00,,CLR,0.00,VWS V14.01,2013-02-19 16:35:00,
2013-02-19 10:40:00,42.5,19.9,30.39,North,11,7.0,10.0,40,0.00,,CLR,0.00,VWS V14.01,2013-02-19 16:40:00,
2013-02-19 10:45:00,42.6,18.8,30.40,WNW,291,7.0,10.0,38,0.00,,CLR,0.00,VWS V14.01,2013-02-19 16:45:00,
2013-02-19 10:50:00,42.6,20.0,30.40,NNW,342,2.0,10.0,40,0.00,,CLR,0.00,VWS V14.01,2013-02-19 16:50:00,
2013-02-19 10:55:00,42.5,19.9,30.40,WNW,302,2.0,11.0,40,0.00,,CLR,0.00,VWS V14.01,2013-02-19 16:55:00,
2013-02-19 11:00:00,42.9,20.8,30.40,NE,54,2.0,11.0,41,0.00,,CLR,0.00,VWS V14.01,2013-02-19 17:00:00,
2013-02-19 11:05:00,43.5,19.6,30.40,North,0,6.0,10.0,38,0.00,,CLR,0.00,VWS V14.01,2013-02-19 17:05:00,
2013-02-19 11:10:00,43.2,19.3,30.40,North,359,1.0,10.0,38,0.00,,CLR,0.00,VWS V14.01,2013-02-19 17:10:00,
2013-02-19 11:15:00,43.5,20.8,30.40,North,356,10.0,12.0,40,0.00,,CLR,0.00,VWS V14.01,2013-02-19 17:15:00,
2013-02-19 11:20:00,43.3,19.4,30.40,NE,37,5.0,12.0,38,0.00,,CLR,0.00,VWS V14.01,2013-02-19 17:20:00,
2013-02-19 11:25:00,43.8,20.5,30.40,North,356,5.0,12.0,39,0.00,,CLR,0.00,VWS V14.01,2013-02-19 17:25:00,
2013-02-19 11:30:00,43.6,19.7,30.41,West,277,5.0,12.0,38,0.00,,CLR,0.00,VWS V14.01,2013-02-19 17:30:00,
2013-02-19 11:35:00,43.6,20.3,30.41,NW,315,1.0,12.0,39,0.00,,CLR,0.00,VWS V14.01,2013-02-19 17:35:00,
2013-02-19 11:41:00,44.1,18.9,30.41,North,359,5.0,12.0,36,0.00,,CLR,0.00,VWS V14.01,2013-02-19 17:41:00,
2013-02-19 11:46:00,43.5,20.2,30.41,WNW,292,10.0,12.0,39,0.00,,CLR,0.00,VWS V14.01,2013-02-19 17:46:00,
2013-02-19 11:51:00,43.5,19.6,30.41,WNW,294,0.0,12.0,38,0.00,,CLR,0.00,VWS V14.01,2013-02-19 17:51:00,
2013-02-19 11:56:00,43.5,19.6,30.41,North,359,2.0,12.0,38,0.00,,CLR,0.00,VWS V14.01,2013-02-19 17:56:00,
2013-02-19 12:01:00,43.8,18.6,30.40,WNW,295,6.0,7.0,36,0.00,,CLR,0.00,VWS V14.01,2013-02-19 18:01:00,
2013-02-19 12:06:00,43.6,18.4,30.40,West,277,2.0,8.0,36,0.00,,CLR,0.00,VWS V14.01,2013-02-19 18:06:00,
2013-02-19 12:11:00,43.8,19.2,30.40,West,263,3.0,10.0,37,0.00,,CLR,0.00,VWS V14.01,2013-02-19 18:11:00,
2013-02-19 12:16:00,44.2,20.2,30.40,North,359,3.0,10.0,38,0.00,,CLR,0.00,VWS V14.01,2013-02-19 18:16:00,
2013-02-19 12:21:00,44.2,20.2,30.40,West,281,0.0,10.0,38,0.00,,CLR,0.00,VWS V14.01,2013-02-19 18:21:00,
2013-02-19 12:26:00,45.2,20.5,30.40,NE,37,2.0,10.0,37,0.00,,CLR,0.00,VWS V14.01,2013-02-19 18:26:00,
2013-02-19 12:31:00,45.5,20.8,30.39,West,281,5.0,10.0,37,0.00,,CLR,0.00,VWS V14.01,2013-02-19 18:31:00,
2013-02-19 12:36:00,45.2,19.9,30.39,NE,45,1.0,12.0,36,0.00,,CLR,0.00,VWS V14.01,2013-02-19 18:36:00,
2013-02-19 12:41:00,45.5,20.1,30.39,West,275,1.0,12.0,36,0.00,,CLR,0.00,VWS V14.01,2013-02-19 18:41:00,
2013-02-19 12:46:00,45.8,19.7,30.39,SW,229,2.0,12.0,35,0.00,,CLR,0.00,VWS V14.01,2013-02-19 18:46:00,
2013-02-19 12:51:00,45.7,19.0,30.39,WNW,296,6.0,13.0,34,0.00,,CLR,0.00,VWS V14.01,2013-02-19 18:51:00,
2013-02-19 12:56:00,45.8,20.4,30.39,North,352,1.0,13.0,36,0.00,,CLR,0.00,VWS V14.01,2013-02-19 18:56:00,
2013-02-19 13:01:00,46.2,19.4,30.38,NE,41,0.0,5.0,34,0.00,,CLR,0.00,VWS V14.01,2013-02-19 19:01:00,
2013-02-19 13:06:00,46.2,19.4,30.38,NW,306,2.0,5.0,34,0.00,,CLR,0.00,VWS V14.01,2013-02-19 19:06:00,
2013-02-19 13:11:00,46.7,19.8,30.38,NW,315,0.0,10.0,34,0.00,,CLR,0.00,VWS V14.01,2013-02-19 19:11:00,
2013-02-19 13:16:00,47.6,19.2,30.37,North,0,0.0,10.0,32,0.00,,CLR,0.00,VWS V14.01,2013-02-19 19:16:00,
2013-02-19 13:22:00,48.0,20.3,30.37,North,350,2.0,10.0,33,0.00,,CLR,0.00,VWS V14.01,2013-02-19 19:22:00,
2013-02-19 13:27:00,47.9,19.5,30.37,North,3,0.0,10.0,32,0.00,,CLR,0.00,VWS V14.01,2013-02-19 19:27:00,
2013-02-19 13:32:00,47.4,19.0,30.36,NNE,30,2.0,10.0,32,0.00,,CLR,0.00,VWS V14.01,2013-02-19 19:32:00,
2013-02-19 13:37:00,48.0,20.3,30.36,WNW,292,6.0,10.0,33,0.00,,CLR,0.00,VWS V14.01,2013-02-19 19:37:00,
2013-02-19 13:44:00,48.0,21.0,30.36,NNW,343,0.0,10.0,34,0.00,,CLR,0.00,VWS V14.01,2013-02-19 19:44:00,
2013-02-19 13:51:00,48.2,20.5,30.35,West,264,2.0,10.0,33,0.00,,CLR,0.00,VWS V14.01,2013-02-19 19:51:00,
2013-02-19 13:56:00,48.8,20.3,30.35,North,350,5.0,10.0,32,0.00,,CLR,0.00,VWS V14.01,2013-02-19 19:56:00,
2013-02-19 14:02:00,48.9,19.6,30.34,NW,311,2.0,5.0,31,0.00,,CLR,0.00,VWS V14.01,2013-02-19 20:02:00,
2013-02-19 14:07:00,48.8,21.0,30.34,WNW,285,1.0,7.0,33,0.00,,CLR,0.00,VWS V14.01,2013-02-19 20:07:00,
2013-02-19 14:12:00,48.6,19.4,30.34,West,278,3.0,10.0,31,0.00,,CLR,0.00,VWS V14.01,2013-02-19 20:12:00,
2013-02-19 14:17:00,48.3,19.8,30.35,NW,313,1.0,10.0,32,0.00,,CLR,0.00,VWS V14.01,2013-02-19 20:17:00,
2013-02-19 14:22:00,48.6,20.1,30.35,WNW,294,1.0,10.0,32,0.00,,CLR,0.00,VWS V14.01,2013-02-19 20:22:00,
2013-02-19 14:27:00,48.8,21.0,30.35,North,349,0.0,10.0,33,0.00,,CLR,0.00,VWS V14.01,2013-02-19 20:27:00,
2013-02-19 14:32:00,49.2,20.6,30.34,NNW,339,0.0,10.0,32,0.00,,CLR,0.00,VWS V14.01,2013-02-19 20:32:00,
2013-02-19 14:37:00,48.5,19.3,30.34,NNW,344,0.0,10.0,31,0.00,,CLR,0.00,VWS V14.01,2013-02-19 20:37:00,
2013-02-19 14:42:00,48.8,20.3,30.34,ENE,62,5.0,10.0,32,0.00,,CLR,0.00,VWS V14.01,2013-02-19 20:42:00,
2013-02-19 14:47:00,47.9,20.2,30.33,East,83,0.0,10.0,33,0.00,,CLR,0.00,VWS V14.01,2013-02-19 20:47:00,
2013-02-19 14:52:00,47.7,20.0,30.33,NE,41,3.0,10.0,33,0.00,,CLR,0.00,VWS V14.01,2013-02-19 20:52:00,
2013-02-19 14:58:00,47.4,19.8,30.33,ENE,72,3.0,10.0,33,0.00,,CLR,0.00,VWS V14.01,2013-02-19 20:58:00,
2013-02-19 15:03:00,47.3,21.0,30.33,ENE,66,0.0,6.0,35,0.00,,CLR,0.00,VWS V14.01,2013-02-19 21:03:00,
2013-02-19 15:08:00,48.0,20.3,30.33,North,7,2.0,7.0,33,0.00,,CLR,0.00,VWS V14.01,2013-02-19 21:08:00,
2013-02-19 15:13:00,47.9,21.6,30.33,East,86,3.0,7.0,35,0.00,,CLR,0.00,VWS V14.01,2013-02-19 21:13:00,
2013-02-19 15:19:00,48.3,19.8,30.33,NE,41,5.0,7.0,32,0.00,,CLR,0.00,VWS V14.01,2013-02-19 21:19:00,
2013-02-19 15:25:00,47.7,20.7,30.33,NE,42,0.0,7.0,34,0.00,,CLR,0.00,VWS V14.01,2013-02-19 21:25:00,
2013-02-19 15:30:00,48.5,20.7,30.32,North,11,2.0,7.0,33,0.00,,CLR,0.00,VWS V14.01,2013-02-19 21:30:00,
2013-02-19 15:35:00,49.1,21.3,30.32,North,8,2.0,7.0,33,0.00,,CLR,0.00,VWS V14.01,2013-02-19 21:35:00,
2013-02-19 15:40:00,48.5,20.7,30.32,NE,34,2.0,7.0,33,0.00,,CLR,0.00,VWS V14.01,2013-02-19 21:40:00,
2013-02-19 15:45:00,48.0,19.6,30.31,ENE,66,2.0,7.0,32,0.00,,CLR,0.00,VWS V14.01,2013-02-19 21:45:00,
2013-02-19 15:51:00,47.7,20.7,30.31,ENE,62,3.0,7.0,34,0.00,,CLR,0.00,VWS V14.01,2013-02-19 21:51:00,
2013-02-19 15:56:00,47.9,21.6,30.31,ENE,75,7.0,7.0,35,0.00,,CLR,0.00,VWS V14.01,2013-02-19 21:56:00,
2013-02-19 16:02:00,48.2,19.7,30.31,NE,54,1.0,5.0,32,0.00,,CLR,0.00,VWS V14.01,2013-02-19 22:02:00,
2013-02-19 16:07:00,48.8,21.0,30.31,NNE,17,1.0,5.0,33,0.00,,CLR,0.00,VWS V14.01,2013-02-19 22:07:00,
2013-02-19 16:13:00,48.9,20.4,30.31,North,0,2.0,5.0,32,0.00,,CLR,0.00,VWS V14.01,2013-02-19 22:13:00,
2013-02-19 16:18:00,49.2,20.6,30.31,North,359,1.0,7.0,32,0.00,,CLR,0.00,VWS V14.01,2013-02-19 22:18:00,
2013-02-19 16:23:00,49.6,18.7,30.31,NW,325,0.0,7.0,29,0.00,,CLR,0.00,VWS V14.01,2013-02-19 22:23:00,
2013-02-19 16:28:00,49.6,20.2,30.31,WNW,296,0.0,7.0,31,0.00,,CLR,0.00,VWS V14.01,2013-02-19 22:28:00,
2013-02-19 16:33:00,49.2,22.0,30.30,NE,54,2.0,7.0,34,0.00,,CLR,0.00,VWS V14.01,2013-02-19 22:33:00,
2013-02-19 16:38:00,48.9,20.4,30.30,NNW,339,5.0,7.0,32,0.00,,CLR,0.00,VWS V14.01,2013-02-19 22:38:00,
2013-02-19 16:43:00,48.8,20.3,30.30,NNE,31,2.0,7.0,32,0.00,,CLR,0.00,VWS V14.01,2013-02-19 22:43:00,
2013-02-19 16:48:00,48.5,20.0,30.30,NE,34,2.0,7.0,32,0.00,,CLR,0.00,VWS V14.01,2013-02-19 22:48:00,
2013-02-19 16:53:00,48.0,20.3,30.30,NE,34,1.0,7.0,33,0.00,,CLR,0.00,VWS V14.01,2013-02-19 22:53:00,
2013-02-19 16:58:00,47.9,20.2,30.30,NNE,32,0.0,7.0,33,0.00,,CLR,0.00,VWS V14.01,2013-02-19 22:58:00,
2013-02-19 17:03:00,47.7,20.0,30.30,NNE,30,2.0,3.0,33,0.00,,CLR,0.00,VWS V14.01,2013-02-19 23:03:00,
2013-02-19 17:08:00,47.4,20.5,30.30,ENE,69,3.0,5.0,34,0.00,,CLR,0.00,VWS V14.01,2013-02-19 23:08:00,
2013-02-19 17:13:00,47.3,20.4,30.30,ENE,72,0.0,6.0,34,0.00,,CLR,0.00,VWS V14.01,2013-02-19 23:13:00,
2013-02-19 17:18:00,47.3,20.4,30.29,ENE,64,0.0,6.0,34,0.00,,CLR,0.00,VWS V14.01,2013-02-19 23:18:00,
2013-02-19 17:23:00,47.1,19.5,30.29,ENE,64,0.0,6.0,33,0.00,,CLR,0.00,VWS V14.01,2013-02-19 23:23:00,
2013-02-19 17:28:00,47.0,20.1,30.29,NE,55,3.0,6.0,34,0.00,,CLR,0.00,VWS V14.01,2013-02-19 23:28:00,
2013-02-19 17:33:00,47.0,20.1,30.30,NE,54,2.0,6.0,34,0.00,,CLR,0.00,VWS V14.01,2013-02-19 23:33:00,
2013-02-19 17:39:00,46.8,19.9,30.30,NE,54,0.0,6.0,34,0.00,,CLR,0.00,VWS V14.01,2013-02-19 23:39:00,
2013-02-19 17:44:00,46.4,21.6,30.30,NE,48,2.0,6.0,37,0.00,,CLR,0.00,VWS V14.01,2013-02-19 23:44:00,
2013-02-19 17:49:00,46.1,20.6,30.30,NE,45,1.0,6.0,36,0.00,,CLR,0.00,VWS V14.01,2013-02-19 23:49:00,
2013-02-19 17:54:00,46.0,19.9,30.30,NE,48,1.0,6.0,35,0.00,,CLR,0.00,VWS V14.01,2013-02-19 23:54:00,
2013-02-19 17:59:00,45.7,20.3,30.30,NE,48,0.0,6.0,36,0.00,,CLR,0.00,VWS V14.01,2013-02-19 23:59:00,
2013-02-19 18:04:00,45.5,20.8,30.29,NE,49,1.0,2.0,37,0.00,,CLR,0.00,VWS V14.01,2013-02-20 00:04:00,
2013-02-19 18:09:00,45.2,20.5,30.29,ENE,73,0.0,5.0,37,0.00,,CLR,0.00,VWS V14.01,2013-02-20 00:09:00,
2013-02-19 18:14:00,44.8,21.4,30.29,ENE,73,2.0,5.0,39,0.00,,CLR,0.00,VWS V14.01,2013-02-20 00:14:00,
2013-02-19 18:19:00,44.5,21.7,30.29,ENE,65,2.0,7.0,40,0.00,,CLR,0.00,VWS V14.01,2013-02-20 00:19:00,
2013-02-19 18:24:00,44.2,21.4,30.29,ENE,76,2.0,7.0,40,0.00,,CLR,0.00,VWS V14.01,2013-02-20 00:24:00,
2013-02-19 18:29:00,43.9,21.7,30.29,ENE,75,5.0,7.0,41,0.00,,CLR,0.00,VWS V14.01,2013-02-20 00:29:00,
2013-02-19 18:34:00,43.6,21.5,30.30,ENE,75,2.0,7.0,41,0.00,,CLR,0.00,VWS V14.01,2013-02-20 00:34:00,
2013-02-19 18:39:00,43.2,21.7,30.30,ENE,78,2.0,7.0,42,0.00,,CLR,0.00,VWS V14.01,2013-02-20 00:39:00,
2013-02-19 18:44:00,43.1,21.6,30.30,East,79,2.0,7.0,42,0.00,,CLR,0.00,VWS V14.01,2013-02-20 00:44:00,
2013-02-19 18:49:00,42.8,21.9,30.30,ENE,75,1.0,7.0,43,0.00,,CLR,0.00,VWS V14.01,2013-02-20 00:49:00,
2013-02-19 18:54:00,42.5,21.6,30.30,ENE,59,2.0,7.0,43,0.00,,CLR,0.00,VWS V14.01,2013-02-20 00:54:00,
2013-02-19 18:59:00,42.5,21.0,30.29,NE,51,1.0,7.0,42,0.00,,CLR,0.00,VWS V14.01,2013-02-20 00:59:00,
2013-02-19 19:04:00,42.3,21.4,30.29,ENE,72,2.0,5.0,43,0.00,,CLR,0.00,VWS V14.01,2013-02-20 01:04:00,
2013-02-19 19:10:00,42.2,21.3,30.29,ENE,76,2.0,5.0,43,0.00,,CLR,0.00,VWS V14.01,2013-02-20 01:10:00,
2013-02-19 19:15:00,42.1,21.2,30.29,ENE,76,2.0,5.0,43,0.00,,CLR,0.00,VWS V14.01,2013-02-20 01:15:00,
2013-02-19 19:20:00,42.1,21.2,30.29,ENE,72,1.0,5.0,43,0.00,,CLR,0.00,VWS V14.01,2013-02-20 01:20:00,
2013-02-19 19:25:00,41.9,20.5,30.29,ENE,68,2.0,5.0,42,0.00,,CLR,0.00,VWS V14.01,2013-02-20 01:25:00,
2013-02-19 19:30:00,41.6,21.3,30.30,ENE,72,2.0,5.0,44,0.00,,CLR,0.00,VWS V14.01,2013-02-20 01:30:00,
2013-02-19 19:35:00,41.3,21.0,30.30,ENE,75,2.0,5.0,44,0.00,,CLR,0.00,VWS V14.01,2013-02-20 01:35:00,
2013-02-19 19:40:00,40.9,21.2,30.30,ENE,78,5.0,5.0,45,0.00,,CLR,0.00,VWS V14.01,2013-02-20 01:40:00,
2013-02-19 19:45:00,40.8,20.6,30.31,East,79,2.0,5.0,44,0.00,,CLR,0.00,VWS V14.01,2013-02-20 01:45:00,
2013-02-19 19:50:00,40.8,21.1,30.31,ENE,71,5.0,5.0,45,0.00,,CLR,0.00,VWS V14.01,2013-02-20 01:50:00,
2013-02-19 19:55:00,40.8,21.6,30.31,ENE,71,3.0,5.0,46,0.00,,CLR,0.00,VWS V14.01,2013-02-20 01:55:00,
2013-02-19 20:00:00,40.9,20.7,30.31,ENE,73,3.0,5.0,44,0.00,,CLR,0.00,VWS V14.01,2013-02-20 02:00:00,
2013-02-19 20:05:00,40.8,21.6,30.31,ENE,73,2.0,5.0,46,0.00,,CLR,0.00,VWS V14.01,2013-02-20 02:05:00,
2013-02-19 20:10:00,40.6,20.9,30.31,ENE,73,2.0,5.0,45,0.00,,CLR,0.00,VWS V14.01,2013-02-20 02:10:00,
2013-02-19 20:15:00,40.3,20.1,30.30,ENE,73,2.0,5.0,44,0.00,,CLR,0.00,VWS V14.01,2013-02-20 02:15:00,
2013-02-19 20:20:00,40.2,21.1,30.30,ENE,69,1.0,5.0,46,0.00,,CLR,0.00,VWS V14.01,2013-02-20 02:20:00,
2013-02-19 20:25:00,39.9,21.3,30.30,ENE,66,1.0,5.0,47,0.00,,CLR,0.00,VWS V14.01,2013-02-20 02:25:00,
2013-02-19 20:30:00,39.8,21.2,30.30,ENE,64,2.0,5.0,47,0.00,,CLR,0.00,VWS V14.01,2013-02-20 02:30:00,
2013-02-19 20:36:00,39.8,21.2,30.30,NE,45,3.0,6.0,47,0.00,,CLR,0.00,VWS V14.01,2013-02-20 02:36:00,
2013-02-19 20:41:00,39.6,20.5,30.30,ENE,73,2.0,6.0,46,0.00,,CLR,0.00,VWS V14.01,2013-02-20 02:41:00,
2013-02-19 20:46:00,39.5,21.0,30.30,ENE,66,2.0,6.0,47,0.00,,CLR,0.00,VWS V14.01,2013-02-20 02:46:00,
2013-02-19 20:51:00,39.5,21.5,30.30,ENE,71,2.0,6.0,48,0.00,,CLR,0.00,VWS V14.01,2013-02-20 02:51:00,
2013-02-19 20:56:00,39.3,21.3,30.30,ENE,68,3.0,6.0,48,0.00,,CLR,0.00,VWS V14.01,2013-02-20 02:56:00,
2013-02-19 21:01:00,39.3,20.8,30.30,ENE,78,3.0,5.0,47,0.00,,CLR,0.00,VWS V14.01,2013-02-20 03:01:00,
2013-02-19 21:06:00,39.2,20.7,30.30,ENE,73,2.0,6.0,47,0.00,,CLR,0.00,VWS V14.01,2013-02-20 03:06:00,
2013-02-19 21:11:00,39.1,20.6,30.30,East,82,2.0,6.0,47,0.00,,CLR,0.00,VWS V14.01,2013-02-20 03:11:00,
2013-02-19 21:16:00,38.9,20.4,30.30,ENE,75,2.0,6.0,47,0.00,,CLR,0.00,VWS V14.01,2013-02-20 03:16:00,
2013-02-19 21:21:00,38.8,19.8,30.30,East,79,5.0,6.0,46,0.00,,CLR,0.00,VWS V14.01,2013-02-20 03:21:00,
2013-02-19 21:26:00,38.6,20.6,30.30,ENE,73,2.0,6.0,48,0.00,,CLR,0.00,VWS V14.01,2013-02-20 03:26:00,
2013-02-19 21:31:00,38.5,20.0,30.30,ENE,75,2.0,7.0,47,0.00,,CLR,0.00,VWS V14.01,2013-02-20 03:31:00,
2013-02-19 21:36:00,38.5,21.5,30.30,ENE,75,5.0,7.0,50,0.00,,CLR,0.00,VWS V14.01,2013-02-20 03:36:00,
2013-02-19 21:41:00,38.3,20.8,30.30,ENE,69,2.0,7.0,49,0.00,,CLR,0.00,VWS V14.01,2013-02-20 03:41:00,
2013-02-19 21:46:00,38.2,20.7,30.30,ENE,69,2.0,7.0,49,0.00,,CLR,0.00,VWS V14.01,2013-02-20 03:46:00,
2013-02-19 21:51:00,38.0,20.1,30.30,East,80,5.0,7.0,48,0.00,,CLR,0.00,VWS V14.01,2013-02-20 03:51:00,
2013-02-19 21:56:00,38.0,21.5,30.30,East,79,2.0,7.0,51,0.00,,CLR,0.00,VWS V14.01,2013-02-20 03:56:00,
2013-02-19 22:01:00,37.9,20.5,30.31,ENE,62,2.0,2.0,49,0.00,,CLR,0.00,VWS V14.01,2013-02-20 04:01:00,
2013-02-19 22:06:00,37.8,20.8,30.31,ENE,65,2.0,5.0,50,0.00,,CLR,0.00,VWS V14.01,2013-02-20 04:06:00,
2013-02-19 22:12:00,37.9,20.5,30.31,NE,56,2.0,7.0,49,0.00,,CLR,0.00,VWS V14.01,2013-02-20 04:12:00,
2013-02-19 22:17:00,37.8,20.8,30.30,ENE,69,5.0,7.0,50,0.00,,CLR,0.00,VWS V14.01,2013-02-20 04:17:00,
2013-02-19 22:22:00,37.8,20.4,30.30,ENE,66,3.0,7.0,49,0.00,,CLR,0.00,VWS V14.01,2013-02-20 04:22:00,
2013-02-19 22:27:00,37.8,21.3,30.30,ENE,73,5.0,7.0,51,0.00,,CLR,0.00,VWS V14.01,2013-02-20 04:27:00,
2013-02-19 22:32:00,37.9,20.5,30.30,ENE,71,3.0,7.0,49,0.00,,CLR,0.00,VWS V14.01,2013-02-20 04:32:00,
2013-02-19 22:37:00,37.8,20.8,30.30,East,85,2.0,7.0,50,0.00,,CLR,0.00,VWS V14.01,2013-02-20 04:37:00,
2013-02-19 22:42:00,37.8,20.4,30.30,East,79,3.0,7.0,49,0.00,,CLR,0.00,VWS V14.01,2013-02-20 04:42:00,
2013-02-19 22:47:00,37.8,20.4,30.31,ENE,71,5.0,7.0,49,0.00,,CLR,0.00,VWS V14.01,2013-02-20 04:47:00,
2013-02-19 22:52:00,37.6,20.2,30.31,ENE,69,2.0,8.0,49,0.00,,CLR,0.00,VWS V14.01,2013-02-20 04:52:00,
2013-02-19 22:57:00,37.6,20.2,30.31,ENE,73,3.0,8.0,49,0.00,,CLR,0.00,VWS V14.01,2013-02-20 04:57:00,
2013-02-19 23:00:00,37.5,21.0,30.31,ENE,62,5.0,8.0,51,0.00,,CLR,0.00,VWS V14.01,2013-02-20 05:00:00,
2013-02-19 23:01:00,37.5,19.6,30.31,ENE,65,5.0,5.0,48,0.00,,CLR,0.00,VWS V14.01,2013-02-20 05:01:00,
2013-02-19 23:03:00,37.5,21.0,30.31,ENE,66,3.0,7.0,51,0.00,,CLR,0.00,VWS V14.01,2013-02-20 05:03:00,
2013-02-19 23:09:00,37.3,20.9,30.31,ENE,72,1.0,7.0,51,0.00,,CLR,0.00,VWS V14.01,2013-02-20 05:09:00,
2013-02-19 23:14:00,37.3,20.4,30.31,ENE,71,2.0,7.0,50,0.00,,CLR,0.00,VWS V14.01,2013-02-20 05:14:00,
2013-02-19 23:19:00,37.3,21.3,30.32,ENE,71,3.0,7.0,52,0.00,,CLR,0.00,VWS V14.01,2013-02-20 05:19:00,
2013-02-19 23:24:00,37.2,20.8,30.32,ENE,72,1.0,7.0,51,0.00,,CLR,0.00,VWS V14.01,2013-02-20 05:24:00,
2013-02-19 23:29:00,37.2,21.2,30.32,ENE,71,2.0,7.0,52,0.00,,CLR,0.00,VWS V14.01,2013-02-20 05:29:00,
2013-02-19 23:34:00,37.0,20.6,30.32,ENE,66,0.0,7.0,51,0.00,,CLR,0.00,VWS V14.01,2013-02-20 05:34:00,
2013-02-19 23:39:00,36.9,20.5,30.32,ENE,65,1.0,7.0,51,0.00,,CLR,0.00,VWS V14.01,2013-02-20 05:39:00,
2013-02-19 23:44:00,36.9,21.4,30.32,ENE,58,1.0,7.0,53,0.00,,CLR,0.00,VWS V14.01,2013-02-20 05:44:00,
2013-02-19 23:49:00,36.9,21.4,30.32,NE,51,2.0,7.0,53,0.00,,CLR,0.00,VWS V14.01,2013-02-20 05:49:00,
2013-02-19 23:54:00,36.8,21.7,30.32,NE,49,1.0,7.0,54,0.00,,CLR,0.00,VWS V14.01,2013-02-20 05:54:00,
2013-02-19 23:59:00,36.8,21.3,30.32,NE,48,5.0,7.0,53,0.00,,CLR,0.00,VWS V14.01,2013-02-20 05:59:00,